Iron Mountain, MI

3:19 AM CST on December 09, 2016 (GMT -0600)
Ford

Weather History for KIMT - October, 2013

Change the Weather History Date:

Saturday, October 5, 2013

  Actual Average Record
Temperature  
Mean Temperature 53 °F -  
Max Temperature 55 °F 61 °F 83 °F (1947)
Min Temperature 51 °F 37 °F 21 °F (1980)
Degree Days  
Heating Degree Days 12    
Growing Degree Days 3 (Base 50)    
Moisture  
Dew Point 51 °F    
Average Humidity 94    
Maximum Humidity 100    
Minimum Humidity 77    
Precipitation  
Precipitation 0.37 in - - ()
Sea Level Pressure  
Sea Level Pressure 29.94 in    
Wind  
Wind Speed 6 mph (ENE)    
Max Wind Speed 10 mph    
Max Gust Speed 20 mph    
Visibility 4 miles    
Events Fog , Rain , Thunderstorm    
Averages and records for this station are not official NWS values.
T = Trace of Precipitation, MM = Missing Value Source: NWS Daily Summary

Daily Weather History Graph

Daily Weather History Graph

Search for Another Location

Airport or City:

Trip Planner

Search our weather history database for the weather conditions in past years. The results will help you decide how hot, cold, wet, or windy it might be!

Date:

Astronomy

Oct. 05, 2013 Rise Set
Actual Time 6:56 AM CDT 6:24 PM CDT
Civil Twilight 6:26 AM CDT 6:54 PM CDT
Nautical Twilight 5:52 AM CDT 7:28 PM CDT
Astronomical Twilight 5:17 AM CDT 8:03 PM CDT
Moon 7:39 AM CDT (10/5) 6:38 PM CDT (10/5)
Length of Visible Light 12h 27m
Length of Day
11h 28m
New Moon, 1% of the Moon is Illuminated
Oct 5
New Moon
Oct 11
First Quarter
Oct 18
Full
Oct 26
Last Quarter
Nov 3
New

Hourly Weather History & Observations

Time (CDT) Temp. Dew Point Humidity Pressure Visibility Wind Dir Wind Speed Gust Speed Precip Events Conditions
12:10 AM 55.4 °F 48.2 °F 77% 30.10 in 10.0 mi Variable 6.9 mph - N/A   Overcast
12:54 AM 54.0 °F 50.0 °F 86% 30.09 in 7.0 mi Variable 6.9 mph - N/A   Overcast
1:54 AM 53.1 °F 50.0 °F 89% 30.07 in 10.0 mi East 8.1 mph - 0.00 in Rain Light Rain
2:54 AM 53.1 °F 51.1 °F 93% 30.07 in 2.5 mi Variable 3.5 mph - 0.09 in Rain Heavy Rain
3:07 AM 53.6 °F 51.8 °F 94% 30.04 in 4.0 mi ENE 4.6 mph - 0.02 in Rain Light Rain
3:54 AM 53.1 °F 50.0 °F 89% 30.06 in 10.0 mi Variable 5.8 mph - 0.02 in Rain Light Rain
4:54 AM 52.0 °F 50.0 °F 93% 30.09 in 3.0 mi Calm Calm - 0.04 in Rain Rain
5:54 AM 52.0 °F 50.0 °F 93% 30.05 in 5.0 mi East 9.2 mph - 0.06 in Rain Rain
6:54 AM 52.0 °F 50.0 °F 93% 29.99 in 10.0 mi East 10.4 mph 19.6 mph 0.03 in   Overcast
7:24 AM 51.8 °F 50.0 °F 94% 30.01 in 10.0 mi Variable 6.9 mph - N/A   Overcast
7:54 AM 52.0 °F 50.0 °F 93% 30.01 in 7.0 mi East 6.9 mph - N/A   Overcast
8:49 AM 53.6 °F 51.8 °F 94% 29.98 in 1.8 mi ENE 8.1 mph - N/A   Overcast
8:54 AM 53.1 °F 51.1 °F 93% 29.99 in 1.2 mi NE 8.1 mph - N/A   Overcast
9:13 AM 53.6 °F 51.8 °F 94% 29.98 in 0.8 mi ENE 5.8 mph - N/A   Overcast
9:29 AM 51.8 °F 51.8 °F 100% 29.98 in 0.2 mi ENE 8.1 mph - N/A Fog Fog
9:54 AM 53.1 °F 52.0 °F 96% 30.00 in 0.2 mi East 6.9 mph - N/A Fog Fog
10:34 AM 53.6 °F 51.8 °F 94% 29.99 in 0.5 mi Variable 4.6 mph - 0.00 in Fog , Rain Light Rain
10:44 AM 53.6 °F 51.8 °F 94% 29.99 in 1.0 mi NE 6.9 mph - 0.00 in   Overcast
10:54 AM 53.1 °F 52.0 °F 96% 30.01 in 1.2 mi Calm Calm - 0.00 in   Overcast
11:54 AM 53.1 °F 52.0 °F 96% 30.01 in 1.5 mi North 4.6 mph - 0.02 in Rain Light Rain
12:09 PM 53.6 °F 51.8 °F 94% 29.97 in 2.5 mi NE 9.2 mph - 0.04 in Rain Rain
12:18 PM 53.6 °F 51.8 °F 94% 29.97 in 4.0 mi NE 9.2 mph 16.1 mph 0.04 in Rain Light Rain
12:25 PM 53.6 °F 51.8 °F 94% 29.99 in 8.0 mi Variable 5.8 mph - 0.04 in Rain Light Rain
12:54 PM 53.1 °F 51.1 °F 93% 29.98 in 10.0 mi Variable 6.9 mph - 0.04 in   Overcast
1:38 PM 53.6 °F 51.8 °F 94% 29.94 in 1.8 mi ENE 6.9 mph - 0.00 in Rain Light Rain
1:54 PM 53.1 °F 51.1 °F 93% 29.96 in 2.5 mi East 8.1 mph - 0.00 in   Overcast
2:05 PM 53.6 °F 51.8 °F 94% 29.93 in 4.0 mi Variable 5.8 mph - 0.00 in Rain Light Rain
2:31 PM 53.6 °F 51.8 °F 94% 29.93 in 2.0 mi ENE 6.9 mph - 0.02 in Rain Rain
2:54 PM 53.1 °F 51.1 °F 93% 29.94 in 10.0 mi East 8.1 mph - 0.07 in Thunderstorm Overcast
3:37 PM 53.6 °F 51.8 °F 94% 29.91 in 10.0 mi East 6.9 mph - 0.00 in   Overcast
3:54 PM 54.0 °F 51.1 °F 90% 29.92 in 10.0 mi ESE 5.8 mph - 0.00 in   Overcast
4:54 PM 53.1 °F 51.1 °F 93% 29.93 in 10.0 mi East 4.6 mph 17.3 mph 0.00 in   Overcast
5:13 PM 53.6 °F 51.8 °F 94% 29.90 in 10.0 mi East 5.8 mph - N/A   Overcast
5:54 PM 53.1 °F 51.1 °F 93% 29.92 in 10.0 mi ENE 9.2 mph - N/A   Overcast
6:54 PM 52.0 °F 51.1 °F 97% 29.90 in 7.0 mi NE 5.8 mph - 0.00 in Rain Light Rain
7:20 PM 51.8 °F 51.8 °F 100% 29.88 in 2.0 mi NE 3.5 mph - 0.00 in   Overcast
7:27 PM 51.8 °F 50.0 °F 94% 29.88 in 1.5 mi ENE 5.8 mph - 0.00 in Rain Light Rain
7:54 PM 52.0 °F 50.0 °F 93% 29.88 in 1.5 mi ENE 4.6 mph - 0.00 in   Overcast
8:09 PM 51.8 °F 50.0 °F 94% 29.85 in 2.5 mi ENE 4.6 mph - N/A   Overcast
8:43 PM 51.8 °F 51.8 °F 100% 29.84 in 1.5 mi East 6.9 mph - N/A   Overcast
8:54 PM 52.0 °F 51.1 °F 97% 29.86 in 1.8 mi East 5.8 mph - N/A   Overcast
9:09 PM 51.8 °F 51.8 °F 100% 29.83 in 2.0 mi East 5.8 mph - N/A   Overcast
9:47 PM 53.6 °F 51.8 °F 94% 29.83 in 1.5 mi Variable 5.8 mph - N/A   Overcast
9:54 PM 53.1 °F 52.0 °F 96% 29.84 in 1.2 mi ENE 3.5 mph - N/A   Overcast
10:54 PM 54.0 °F 53.1 °F 97% 29.80 in 2.5 mi ESE 5.8 mph - N/A   Overcast
11:08 PM 53.6 °F 53.6 °F 100% 29.78 in 3.0 mi East 6.9 mph - N/A   Overcast
11:13 PM 53.6 °F 53.6 °F 100% 29.77 in 1.8 mi East 6.9 mph - N/A   Overcast
11:26 PM 55.4 °F 53.6 °F 94% 29.76 in 0.5 mi East 6.9 mph - 0.00 in Fog , Rain Light Rain
11:52 PM 55.4 °F 55.4 °F 100% 29.74 in 0.2 mi ESE 9.2 mph - 0.00 in Fog Fog
11:54 PM 55.9 °F 55.0 °F 97% 29.75 in 0.2 mi ESE 8.1 mph - 0.00 in Fog Fog